CCA550 ZBTJ-WSSS

Flight info

Callsign CCA550
Flight time N/A
Altitude 32100
Route OMDEK W37 GUSIV V52 OPUNI R473 BEMAG V5 CON DCT BIGEX L642 ESPOB Q801 ESBUM Q802 ELAL
Aircraft A359/H-SDE3FGHIRWY/LB1

Departure

Time 2026-04-12 04:45
Airport Tianjin Binhai International Airport (ZBTJ)

Arrival

Time N/A
Airport Singapore Changi Airport (WSSS)
Time Latitude Longitude Altitude Speed Heading
2026-04-12 04:31 39.13172 117.34813 25 ft 0 kts 66°
2026-04-12 04:34 39.13171 117.34810 25 ft 2 kts 66°
2026-04-12 04:34 39.13163 117.34789 31 ft 3 kts 66°
2026-04-12 04:35 39.13155 117.34765 31 ft 3 kts 65°
2026-04-12 04:35 39.13147 117.34741 31 ft 3 kts 68°
2026-04-12 04:35 39.13140 117.34717 30 ft 3 kts 85°
2026-04-12 04:35 39.13141 117.34697 31 ft 3 kts 136°
2026-04-12 04:36 39.13149 117.34690 25 ft 2 kts 154°
2026-04-12 04:36 39.13167 117.34679 31 ft 3 kts 154°
2026-04-12 04:36 39.13177 117.34672 31 ft 0 kts 154°
2026-04-12 04:39 39.13171 117.34676 29 ft 5 kts 154°
2026-04-12 04:40 39.13113 117.34707 29 ft 10 kts 167°
2026-04-12 04:40 39.13051 117.34650 31 ft 14 kts 238°
2026-04-12 04:40 39.12982 117.34558 28 ft 14 kts 191°
2026-04-12 04:40 39.12886 117.34596 31 ft 17 kts 155°
2026-04-12 04:41 39.12759 117.34675 29 ft 24 kts 154°
2026-04-12 04:41 39.12604 117.34771 28 ft 25 kts 154°
2026-04-12 04:41 39.12442 117.34869 31 ft 26 kts 154°
2026-04-12 04:41 39.12275 117.34971 26 ft 27 kts 154°
2026-04-12 04:42 39.12104 117.35076 29 ft 28 kts 154°
2026-04-12 04:42 39.11929 117.35185 31 ft 28 kts 154°
2026-04-12 04:42 39.11752 117.35294 29 ft 29 kts 154°
2026-04-12 04:43 39.11388 117.35517 31 ft 30 kts 154°
2026-04-12 04:43 39.11265 117.35590 27 ft 15 kts 160°
2026-04-12 04:43 39.11190 117.35525 27 ft 15 kts 241°
2026-04-12 04:43 39.11173 117.35400 28 ft 15 kts 299°
2026-04-12 04:44 39.11245 117.35349 30 ft 12 kts 335°
2026-04-12 04:44 39.11329 117.35297 26 ft 15 kts 334°
2026-04-12 04:44 39.11429 117.35236 29 ft 22 kts 334°
2026-04-12 04:44 39.11772 117.35025 29 ft 88 kts 334°
2026-04-12 04:45 39.12515 117.34568 31 ft 146 kts 334°
2026-04-12 04:45 39.13546 117.33914 335 ft 167 kts 332°
2026-04-12 04:45 39.14562 117.33268 1072 ft 163 kts 333°
2026-04-12 04:45 39.15601 117.32604 1446 ft 173 kts 332°
2026-04-12 04:46 39.16746 117.31898 1705 ft 192 kts 333°
2026-04-12 04:46 39.18004 117.31126 1922 ft 210 kts 332°
2026-04-12 04:46 39.19380 117.30273 2242 ft 225 kts 332°
2026-04-12 04:46 39.20801 117.29397 2844 ft 227 kts 332°
2026-04-12 04:47 39.22223 117.28519 3522 ft 226 kts 332°
2026-04-12 04:47 39.23633 117.27634 4107 ft 231 kts 332°
2026-04-12 04:47 39.25095 117.26713 4637 ft 237 kts 332°
2026-04-12 04:47 39.26586 117.25789 5234 ft 240 kts 333°
2026-04-12 04:48 39.28214 117.25228 5844 ft 247 kts 356°
2026-04-12 04:48 39.29888 117.25677 6438 ft 252 kts 25°
2026-04-12 04:48 39.31209 117.27186 6984 ft 260 kts 54°
2026-04-12 04:48 39.32079 117.29247 7557 ft 264 kts 63°
2026-04-12 04:49 39.32646 117.31517 8090 ft 270 kts 82°
2026-04-12 04:49 39.32449 117.33926 8613 ft 274 kts 111°
2026-04-12 04:49 39.31351 117.35949 8932 ft 284 kts 143°
2026-04-12 04:49 39.29628 117.37262 9243 ft 292 kts 156°
2026-04-12 04:50 39.27772 117.38367 9837 ft 296 kts 158°
2026-04-12 04:50 39.25888 117.39484 10330 ft 302 kts 157°
2026-04-12 04:50 39.23967 117.40649 10762 ft 308 kts 157°
2026-04-12 04:50 39.22032 117.41841 11382 ft 308 kts 156°
2026-04-12 04:51 39.20100 117.43037 11979 ft 309 kts 156°
2026-04-12 04:51 39.18153 117.44243 12568 ft 311 kts 156°
2026-04-12 04:51 39.16197 117.45455 13132 ft 313 kts 157°
2026-04-12 04:51 39.14231 117.46671 13723 ft 315 kts 156°
2026-04-12 04:52 39.12251 117.47905 14220 ft 318 kts 157°
2026-04-12 04:52 39.10247 117.49151 14625 ft 321 kts 157°
2026-04-12 04:52 39.08236 117.50425 14780 ft 323 kts 156°
2026-04-12 04:52 39.06222 117.51732 14794 ft 325 kts 156°
2026-04-12 04:53 39.04166 117.52935 14789 ft 324 kts 164°
2026-04-12 04:53 39.01972 117.53346 14790 ft 317 kts 186°
2026-04-12 04:53 38.98068 117.50873 14796 ft 335 kts 230°
2026-04-12 04:54 38.96942 117.48194 14796 ft 352 kts 254°
2026-04-12 04:54 38.96325 117.45086 14783 ft 366 kts 251°
2026-04-12 04:54 38.95311 117.42058 14789 ft 371 kts 244°
2026-04-12 04:54 38.94136 117.39098 14788 ft 372 kts 242°
2026-04-12 04:55 38.92935 117.36149 14789 ft 373 kts 242°
2026-04-12 04:55 38.91729 117.33206 14782 ft 373 kts 242°
2026-04-12 04:55 38.90524 117.30262 14782 ft 372 kts 242°
2026-04-12 04:55 38.89338 117.27359 14784 ft 372 kts 242°
2026-04-12 04:56 38.88134 117.24414 14779 ft 373 kts 242°
2026-04-12 04:56 38.86930 117.21468 14776 ft 373 kts 242°
2026-04-12 04:56 38.85721 117.18517 14773 ft 374 kts 242°
2026-04-12 04:56 38.84507 117.15557 14773 ft 375 kts 242°
2026-04-12 04:57 38.83293 117.12601 14772 ft 374 kts 242°
2026-04-12 04:57 38.82080 117.09651 14769 ft 374 kts 242°
2026-04-12 04:57 38.80866 117.06698 14771 ft 374 kts 242°
2026-04-12 04:57 38.79651 117.03748 14772 ft 374 kts 242°
2026-04-12 04:58 38.78436 117.00800 14771 ft 374 kts 242°
2026-04-12 04:58 38.77220 116.97853 14770 ft 374 kts 242°
2026-04-12 04:58 38.76003 116.94906 14773 ft 374 kts 242°
2026-04-12 04:58 38.74784 116.91962 14770 ft 374 kts 242°
2026-04-12 04:59 38.73545 116.89029 14768 ft 375 kts 242°
2026-04-12 04:59 38.72296 116.86087 14774 ft 376 kts 241°
2026-04-12 04:59 38.71045 116.83143 14771 ft 377 kts 241°
2026-04-12 04:59 38.69792 116.80192 14771 ft 377 kts 241°
2026-04-12 05:00 38.68540 116.77243 14773 ft 377 kts 242°
2026-04-12 05:00 38.67289 116.74291 14774 ft 377 kts 241°
2026-04-12 05:00 38.66034 116.71343 14775 ft 377 kts 241°
2026-04-12 05:00 38.64834 116.68362 14770 ft 377 kts 246°
2026-04-12 05:01 38.64130 116.65140 14773 ft 378 kts 263°
2026-04-12 05:01 38.64059 116.61781 14773 ft 379 kts 271°
2026-04-12 05:01 38.64160 116.58414 14772 ft 379 kts 271°
2026-04-12 05:01 38.64274 116.55043 14773 ft 379 kts 271°
2026-04-12 05:02 38.64381 116.51671 14769 ft 379 kts 271°
2026-04-12 05:02 38.64482 116.48300 14765 ft 379 kts 271°
2026-04-12 05:02 38.64577 116.44926 14770 ft 380 kts 271°
2026-04-12 05:02 38.64670 116.41545 14771 ft 381 kts 271°
2026-04-12 05:03 38.64762 116.38163 14771 ft 381 kts 271°
2026-04-12 05:03 38.64852 116.34778 14772 ft 381 kts 271°
2026-04-12 05:03 38.64942 116.31393 14771 ft 381 kts 271°
2026-04-12 05:03 38.65030 116.28009 14772 ft 380 kts 271°
2026-04-12 05:04 38.65116 116.24630 14769 ft 380 kts 271°
2026-04-12 05:04 38.65203 116.21242 14767 ft 381 kts 271°
2026-04-12 05:04 38.65286 116.17852 14769 ft 381 kts 271°
2026-04-12 05:04 38.65134 116.14476 14767 ft 381 kts 259°
2026-04-12 05:05 38.64274 116.11291 14769 ft 379 kts 241°
2026-04-12 05:05 38.62677 116.08622 14797 ft 382 kts 223°
2026-04-12 05:05 38.60477 116.06710 15206 ft 384 kts 208°
2026-04-12 05:05 38.58085 116.05293 15699 ft 384 kts 204°
2026-04-12 05:06 38.55585 116.04054 16137 ft 387 kts 202°
2026-04-12 05:06 38.53041 116.02900 16533 ft 390 kts 201°
2026-04-12 05:06 38.50471 116.01759 16905 ft 392 kts 201°
2026-04-12 05:06 38.47890 116.00601 17309 ft 394 kts 202°
2026-04-12 05:07 38.45306 115.99419 17731 ft 396 kts 202°
2026-04-12 05:07 38.42713 115.98211 18125 ft 398 kts 203°
2026-04-12 05:07 38.40114 115.96984 18471 ft 400 kts 203°
2026-04-12 05:07 38.37502 115.95744 18809 ft 401 kts 203°
2026-04-12 05:08 38.34881 115.94497 19125 ft 403 kts 203°
2026-04-12 05:08 38.32246 115.93244 19456 ft 405 kts 203°
2026-04-12 05:08 38.29585 115.92027 19782 ft 408 kts 200°
2026-04-12 05:08 38.26805 115.91204 20112 ft 412 kts 193°
2026-04-12 05:09 38.23967 115.90596 20432 ft 415 kts 191°
2026-04-12 05:09 38.21101 115.90094 20744 ft 417 kts 190°
2026-04-12 05:09 38.18212 115.89644 21052 ft 419 kts 189°
2026-04-12 05:09 38.15310 115.89214 21362 ft 421 kts 189°
2026-04-12 05:10 38.12392 115.88784 21656 ft 423 kts 189°
2026-04-12 05:10 38.10455 115.88494 21853 ft 424 kts 190°
2026-04-12 05:10 38.07522 115.88049 22150 ft 426 kts 190°
2026-04-12 05:10 38.03575 115.87443 22542 ft 428 kts 190°
2026-04-12 05:11 38.00613 115.86984 22830 ft 430 kts 190°
2026-04-12 05:11 37.97639 115.86522 23119 ft 432 kts 190°
2026-04-12 05:11 37.95661 115.86214 23312 ft 433 kts 190°
2026-04-12 05:11 37.92665 115.85748 23563 ft 434 kts 190°
2026-04-12 05:12 37.89662 115.85282 23777 ft 436 kts 190°
2026-04-12 05:12 37.86644 115.84809 24006 ft 437 kts 190°
2026-04-12 05:12 37.83623 115.84317 24244 ft 439 kts 191°
2026-04-12 05:12 37.80591 115.83815 24474 ft 440 kts 191°
2026-04-12 05:13 37.77550 115.83309 24703 ft 441 kts 191°
2026-04-12 05:13 37.74504 115.82782 24921 ft 442 kts 193°
2026-04-12 05:13 37.71526 115.81885 25137 ft 439 kts 201°
2026-04-12 05:13 37.68663 115.80540 25357 ft 439 kts 205°
2026-04-12 05:14 37.65848 115.79045 25588 ft 440 kts 206°
2026-04-12 05:14 37.63053 115.77470 25816 ft 440 kts 207°
2026-04-12 05:14 37.60262 115.75856 26049 ft 442 kts 208°
2026-04-12 05:14 37.57470 115.74233 26288 ft 443 kts 208°
2026-04-12 05:15 37.54667 115.72609 26525 ft 444 kts 207°
2026-04-12 05:15 37.51848 115.70985 26711 ft 447 kts 207°
2026-04-12 05:15 37.49017 115.69365 26949 ft 448 kts 207°
2026-04-12 05:15 37.46170 115.67744 27209 ft 449 kts 207°
2026-04-12 05:16 37.43317 115.66124 27467 ft 451 kts 207°
2026-04-12 05:16 37.40456 115.64494 27713 ft 452 kts 208°
2026-04-12 05:16 37.37607 115.62814 27991 ft 453 kts 208°
2026-04-12 05:16 37.34757 115.61102 28250 ft 454 kts 208°
2026-04-12 05:17 37.31901 115.59377 28502 ft 456 kts 208°
2026-04-12 05:17 37.29032 115.57648 28759 ft 458 kts 208°
2026-04-12 05:17 37.26152 115.55920 29033 ft 460 kts 208°
2026-04-12 05:17 37.23296 115.54215 29298 ft 461 kts 208°
2026-04-12 05:18 37.20391 115.52487 29568 ft 463 kts 208°
2026-04-12 05:18 37.17475 115.50756 29850 ft 465 kts 208°
2026-04-12 05:18 37.14549 115.49022 30091 ft 466 kts 208°
2026-04-12 05:18 37.11618 115.47287 30324 ft 467 kts 208°
2026-04-12 05:19 37.08673 115.45544 30529 ft 469 kts 208°
2026-04-12 05:19 37.05713 115.43794 30731 ft 471 kts 208°
2026-04-12 05:19 37.02740 115.42038 30951 ft 473 kts 208°
2026-04-12 05:19 36.99758 115.40277 31173 ft 475 kts 208°
2026-04-12 05:20 36.96762 115.38510 31383 ft 477 kts 208°
2026-04-12 05:20 36.93761 115.36742 31626 ft 478 kts 208°
2026-04-12 05:20 36.90747 115.34968 31831 ft 479 kts 208°
2026-04-12 05:20 36.87728 115.33192 32088 ft 480 kts 208°
2026-04-12 05:21 36.84713 115.31421 32380 ft 479 kts 208°
2026-04-12 05:21 36.81693 115.29647 32680 ft 479 kts 208°
2026-04-12 05:21 36.78676 115.27878 32974 ft 479 kts 208°
2026-04-12 05:21 36.75664 115.26113 33270 ft 478 kts 208°
2026-04-12 05:22 36.72656 115.24352 33569 ft 477 kts 208°
2026-04-12 05:22 36.69649 115.22595 33857 ft 477 kts 208°
2026-04-12 05:22 36.66641 115.20838 34133 ft 476 kts 208°
2026-04-12 05:22 36.63652 115.19090 34484 ft 473 kts 209°
2026-04-12 05:23 36.60684 115.17356 34873 ft 469 kts 209°
2026-04-12 05:23 36.57779 115.15659 35214 ft 466 kts 210°
2026-04-12 05:23 36.54860 115.13957 35605 ft 462 kts 210°
2026-04-12 05:23 36.51954 115.12271 35940 ft 460 kts 210°
2026-04-12 05:24 36.49062 115.10592 36240 ft 458 kts 211°
2026-04-12 05:24 36.46182 115.08919 36542 ft 456 kts 211°
2026-04-12 05:24 36.43313 115.07254 36825 ft 455 kts 211°
2026-04-12 05:24 36.40452 115.05599 37127 ft 453 kts 211°
2026-04-12 05:25 36.37550 115.04068 37394 ft 455 kts 207°
2026-04-12 05:25 36.34495 115.02966 37722 ft 461 kts 200°
2026-04-12 05:25 36.31309 115.02341 37950 ft 466 kts 195°
2026-04-12 05:26 36.24819 115.01552 38002 ft 470 kts 193°
2026-04-12 05:26 36.18274 115.00938 38007 ft 472 kts 193°
2026-04-12 05:27 36.11722 115.00317 38008 ft 472 kts 193°
2026-04-12 05:27 36.05174 114.99664 38009 ft 472 kts 193°
2026-04-12 05:28 35.98629 114.98998 38009 ft 472 kts 193°
2026-04-12 05:28 35.92083 114.98330 38005 ft 472 kts 193°
2026-04-12 05:29 35.85555 114.97668 38009 ft 470 kts 193°
2026-04-12 05:29 35.79034 114.97006 38008 ft 470 kts 193°
2026-04-12 05:30 35.72558 114.96350 38011 ft 470 kts 193°
2026-04-12 05:30 35.66050 114.95694 38014 ft 468 kts 194°
2026-04-12 05:31 35.59560 114.95040 38011 ft 468 kts 194°
2026-04-12 05:31 35.53075 114.94386 38017 ft 468 kts 194°
2026-04-12 05:32 35.46591 114.93734 38016 ft 467 kts 194°
2026-04-12 05:32 35.40139 114.93090 38019 ft 465 kts 194°
2026-04-12 05:33 35.33697 114.92444 38017 ft 464 kts 194°
2026-04-12 05:33 35.27258 114.91798 37993 ft 464 kts 194°
2026-04-12 05:34 35.20831 114.91157 38024 ft 462 kts 194°
2026-04-12 05:34 35.14425 114.90517 38022 ft 462 kts 194°
2026-04-12 05:35 35.08017 114.89877 38023 ft 462 kts 194°
2026-04-12 05:35 35.01614 114.89240 38022 ft 461 kts 195°
2026-04-12 05:36 34.95239 114.88610 38024 ft 459 kts 195°
2026-04-12 05:36 34.88876 114.87980 38031 ft 459 kts 195°
2026-04-12 05:37 34.82514 114.87348 38020 ft 459 kts 195°
2026-04-12 05:37 34.76163 114.86722 38028 ft 457 kts 195°
2026-04-12 05:38 34.69875 114.86103 38025 ft 456 kts 195°
2026-04-12 05:38 34.63550 114.85478 38024 ft 456 kts 195°
2026-04-12 05:39 34.57223 114.84856 38005 ft 456 kts 195°
2026-04-12 05:39 34.50906 114.84237 38021 ft 455 kts 195°
2026-04-12 05:40 34.44604 114.83619 38022 ft 454 kts 195°
2026-04-12 05:40 34.38300 114.83001 38020 ft 454 kts 195°
2026-04-12 05:41 34.31998 114.82385 38019 ft 454 kts 195°
2026-04-12 05:41 34.25707 114.81772 38031 ft 453 kts 196°
2026-04-12 05:42 34.19419 114.81159 38028 ft 453 kts 196°
2026-04-12 05:42 34.13126 114.80554 38026 ft 453 kts 195°
2026-04-12 05:43 34.03704 114.79647 38028 ft 452 kts 196°
2026-04-12 05:43 33.97435 114.79042 38029 ft 452 kts 196°
2026-04-12 05:44 33.91164 114.78439 38030 ft 452 kts 196°
2026-04-12 05:44 33.84894 114.77839 38030 ft 452 kts 196°
2026-04-12 05:45 33.78624 114.77233 38028 ft 452 kts 196°
2026-04-12 05:45 33.72362 114.76599 38027 ft 452 kts 196°
2026-04-12 05:46 33.66097 114.75983 38004 ft 452 kts 196°
2026-04-12 05:46 33.59826 114.75407 38027 ft 452 kts 196°
2026-04-12 05:47 33.53564 114.74812 38027 ft 451 kts 196°
2026-04-12 05:47 33.47320 114.74155 38027 ft 451 kts 197°
2026-04-12 05:48 33.41068 114.73527 37999 ft 451 kts 196°
2026-04-12 05:48 33.34814 114.72923 38019 ft 451 kts 196°
2026-04-12 05:49 33.28606 114.72327 38026 ft 451 kts 196°
2026-04-12 05:49 33.22357 114.71727 38020 ft 451 kts 196°
2026-04-12 05:50 33.16105 114.71127 38018 ft 451 kts 197°
2026-04-12 05:50 33.09857 114.70506 38024 ft 451 kts 197°
2026-04-12 05:51 33.03606 114.69883 38018 ft 451 kts 197°
2026-04-12 05:51 32.97356 114.69265 38015 ft 451 kts 197°
2026-04-12 05:52 32.91104 114.68650 38015 ft 452 kts 197°
2026-04-12 05:52 32.84831 114.68043 38016 ft 453 kts 196°
2026-04-12 05:53 32.78544 114.67450 38011 ft 453 kts 196°
2026-04-12 05:53 32.72262 114.66858 38011 ft 453 kts 196°
2026-04-12 05:54 32.65973 114.66264 38014 ft 454 kts 196°
2026-04-12 05:54 32.59677 114.65671 38009 ft 454 kts 196°
2026-04-12 05:55 32.53377 114.65080 38008 ft 454 kts 196°
2026-04-12 05:55 32.47077 114.64489 38005 ft 454 kts 196°
2026-04-12 05:56 32.40768 114.63896 38003 ft 455 kts 196°
2026-04-12 05:56 32.34444 114.63305 38004 ft 456 kts 196°
2026-04-12 05:57 32.28124 114.62687 38003 ft 456 kts 196°
2026-04-12 05:57 32.21808 114.62064 37962 ft 456 kts 196°
2026-04-12 05:58 32.15472 114.61442 37997 ft 458 kts 196°
2026-04-12 05:58 32.09121 114.60825 37997 ft 458 kts 196°
2026-04-12 05:59 32.02765 114.60211 37995 ft 458 kts 196°
2026-04-12 05:59 31.96452 114.59601 37969 ft 458 kts 195°
2026-04-12 06:00 31.90071 114.58982 37995 ft 461 kts 195°
2026-04-12 06:00 31.83674 114.58366 37987 ft 461 kts 195°
2026-04-12 06:01 31.77275 114.57753 37986 ft 461 kts 195°
2026-04-12 06:01 31.70876 114.57138 37978 ft 462 kts 195°
2026-04-12 06:02 31.65500 114.56621 37988 ft 463 kts 195°
2026-04-12 06:02 31.59121 114.56015 37979 ft 463 kts 195°
2026-04-12 06:03 31.52681 114.55391 37976 ft 465 kts 195°
2026-04-12 06:03 31.46249 114.54779 37975 ft 463 kts 195°
2026-04-12 06:04 31.39827 114.54168 37969 ft 463 kts 195°
2026-04-12 06:04 31.33403 114.53556 37971 ft 463 kts 195°
2026-04-12 06:05 31.27000 114.52870 37968 ft 457 kts 199°
2026-04-12 06:05 31.23941 114.52068 37935 ft 445 kts 206°
2026-04-12 06:05 31.21068 114.50813 37975 ft 438 kts 212°
2026-04-12 06:06 31.15537 114.47858 37974 ft 437 kts 214°
2026-04-12 06:06 31.10065 114.44769 37955 ft 437 kts 214°
2026-04-12 06:07 31.04589 114.41693 37974 ft 437 kts 214°
2026-04-12 06:07 30.99099 114.38646 37956 ft 437 kts 214°
2026-04-12 06:08 30.93598 114.35607 37977 ft 437 kts 214°
2026-04-12 06:08 30.88069 114.32626 37980 ft 439 kts 213°
2026-04-12 06:09 30.82492 114.29725 37982 ft 439 kts 212°
2026-04-12 06:09 30.76926 114.26802 37960 ft 438 kts 213°
2026-04-12 06:10 30.71409 114.23793 37984 ft 438 kts 213°
2026-04-12 06:10 30.65894 114.20773 37980 ft 438 kts 213°
2026-04-12 06:11 30.60373 114.17770 37976 ft 438 kts 213°
2026-04-12 06:11 30.54839 114.14780 37973 ft 439 kts 213°
2026-04-12 06:12 30.49305 114.11793 37964 ft 439 kts 213°
2026-04-12 06:12 30.43773 114.08801 37962 ft 439 kts 213°
2026-04-12 06:13 30.38236 114.05812 37977 ft 439 kts 213°
2026-04-12 06:13 30.32701 114.02831 37965 ft 439 kts 213°
2026-04-12 06:14 30.27199 113.99871 37970 ft 440 kts 213°
2026-04-12 06:14 30.21648 113.96895 37969 ft 440 kts 213°
2026-04-12 06:15 30.16091 113.93921 37976 ft 440 kts 213°
2026-04-12 06:15 30.10536 113.90948 37978 ft 440 kts 213°
2026-04-12 06:16 30.04978 113.87979 37971 ft 440 kts 213°
2026-04-12 06:16 29.99412 113.85009 37973 ft 441 kts 213°
2026-04-12 06:17 29.93842 113.82043 37972 ft 441 kts 213°
2026-04-12 06:17 29.88151 113.79312 37976 ft 450 kts 205°
2026-04-12 06:18 29.81872 113.78059 37957 ft 465 kts 194°
2026-04-12 06:18 29.75383 113.77546 37980 ft 469 kts 192°
2026-04-12 06:19 29.68864 113.77153 37983 ft 469 kts 192°
2026-04-12 06:19 29.62347 113.76739 37986 ft 469 kts 193°
2026-04-12 06:20 29.55838 113.76297 37963 ft 468 kts 192°
2026-04-12 06:20 29.49315 113.75841 37986 ft 470 kts 192°
2026-04-12 06:21 29.42782 113.75387 37989 ft 471 kts 192°
2026-04-12 06:21 29.36241 113.74936 37998 ft 470 kts 192°
2026-04-12 06:22 29.29714 113.74488 37974 ft 469 kts 192°
2026-04-12 06:22 29.23172 113.74147 37995 ft 475 kts 187°
2026-04-12 06:23 29.16541 113.74342 37992 ft 477 kts 187°
2026-04-12 06:23 29.09945 113.74646 37991 ft 478 kts 186°
2026-04-12 06:24 29.03298 113.74965 37981 ft 478 kts 186°
2026-04-12 06:24 28.96649 113.75279 37986 ft 478 kts 186°
2026-04-12 06:25 28.89994 113.75578 37983 ft 479 kts 186°
2026-04-12 06:25 28.83339 113.75877 37986 ft 478 kts 186°
2026-04-12 06:26 28.76686 113.76175 37970 ft 478 kts 186°
2026-04-12 06:26 28.70029 113.76472 37992 ft 479 kts 186°
2026-04-12 06:27 28.63366 113.76771 37988 ft 479 kts 186°
2026-04-12 06:27 28.56706 113.77070 37990 ft 479 kts 186°
2026-04-12 06:28 28.50044 113.77371 37951 ft 479 kts 186°
2026-04-12 06:28 28.43376 113.77669 37999 ft 480 kts 186°
2026-04-12 06:29 28.36745 113.77965 37985 ft 480 kts 186°
2026-04-12 06:29 28.30066 113.78263 37996 ft 480 kts 186°
2026-04-12 06:30 28.23391 113.78561 37987 ft 480 kts 186°
2026-04-12 06:30 28.16714 113.78857 37994 ft 480 kts 185°
2026-04-12 06:31 28.10041 113.79154 37989 ft 480 kts 185°
2026-04-12 06:31 28.03365 113.79451 37989 ft 480 kts 185°
2026-04-12 06:32 27.96690 113.79747 37985 ft 480 kts 185°
2026-04-12 06:32 27.90016 113.80044 37989 ft 480 kts 185°
2026-04-12 06:33 27.83349 113.80339 37986 ft 480 kts 185°
2026-04-12 06:33 27.76683 113.80634 37985 ft 479 kts 185°
2026-04-12 06:34 27.70017 113.80928 37986 ft 479 kts 185°
2026-04-12 06:34 27.63351 113.81221 37986 ft 480 kts 185°
2026-04-12 06:35 27.53343 113.81661 37986 ft 480 kts 185°
2026-04-12 06:36 27.46672 113.81955 37983 ft 480 kts 185°
2026-04-12 06:36 27.40011 113.82247 37960 ft 479 kts 185°
2026-04-12 06:37 27.33373 113.82538 37982 ft 481 kts 185°
2026-04-12 06:37 27.26676 113.82833 37987 ft 482 kts 185°
2026-04-12 06:38 27.19980 113.83126 37969 ft 481 kts 185°
2026-04-12 06:38 27.13283 113.83418 37972 ft 481 kts 185°
2026-04-12 06:39 27.06583 113.83703 37969 ft 482 kts 185°
2026-04-12 06:39 26.99877 113.83993 37965 ft 482 kts 185°
2026-04-12 06:40 26.93163 113.84290 37967 ft 483 kts 185°
2026-04-12 06:40 26.86452 113.84579 37964 ft 483 kts 185°
2026-04-12 06:41 26.79743 113.84876 37960 ft 482 kts 185°
2026-04-12 06:41 26.73049 113.85159 37962 ft 481 kts 185°
2026-04-12 06:42 26.66344 113.85459 37961 ft 482 kts 185°
2026-04-12 06:42 26.59640 113.85750 37966 ft 482 kts 185°
2026-04-12 06:43 26.52946 113.86044 37969 ft 481 kts 184°
2026-04-12 06:43 26.46259 113.87250 37965 ft 491 kts 174°
2026-04-12 06:44 26.39621 113.89095 37956 ft 492 kts 172°
2026-04-12 06:44 26.32986 113.91044 37962 ft 493 kts 172°
2026-04-12 06:45 26.26355 113.92993 37953 ft 493 kts 172°
2026-04-12 06:45 26.19721 113.94919 37949 ft 493 kts 172°
2026-04-12 06:46 26.13086 113.96831 37949 ft 493 kts 172°
2026-04-12 06:46 26.06450 113.98732 37941 ft 492 kts 173°
2026-04-12 06:47 25.99826 113.99523 37942 ft 475 kts 189°